Погода в Ольхове

Россия / Смоленская область     55°02′24″N   32°47′23″E
темп.,
°C
ветер,
м/с
пор.,
м/с
влажн.,
%
обл.,
%
осадки,
мм/ч
давл.,
гПа
погр.,
м
24 мая, вт
вт2400:00+6сз39855 0.0 1009171
03:00+4ссз289644 0.0 1010170
06:00+4ссз3984100 0.0 1011257
09:00+10сз4743100 0.0 1011572
12:00+15ссз594314 0.0 10102224
15:00+17ссз583354 0.0 10102373
18:00+16с48405 0.0 10102030
21:00+8сз24585 0.0 101349
25 мая, ср
ср2500:00+6ссв236499 0.0 101567
03:00+3в11895 0.0 101611
06:00+5всв01841 0.0 101643
09:00+11ссз24500 0.0 1016544
12:00+16сз47380 0.0 10151596
15:00+19сз47365 0.0 10142327
18:00+18сз26465 0.0 10132184
21:00+11з227795 0.0 101317
26 мая, чт
чт2600:00+9юз228622 0.0 101334
03:00+8ююз2286100 0.0 101232
06:00+11ю278298 0.0 1009190
09:00+14ююз41072100 0.1 1007553
12:00+11ю51294100 1.6 1006826
15:00+10зсз71493100 2.6 1004938
18:00+14зсз497623 0.3 10041189
21:00+11зюз3108299 0.5 1004281
27 мая, пт
пт2700:00+11зюз41293100 0.4 1003607
03:00+10з61294100 1.4 1003930
06:00+8з51294100 0.4 1003944
09:00+9з61282100 0.4 1005930
12:00+13з696031 0.0 10041478
15:00+14зюз51057100 0.3 10042179
18:00+14зюз51059100 0.1 10021474
21:00+10юз41088100 0.4 1002652
28 мая, сб
сб2800:00+9зюз41095100 0.3 1001769
03:00+8зюз5109110 0.9 1000725
06:00+6зюз51092100 0.0 1001666
09:00+7зюз4986100 0.0 10011086
12:00+8зюз51078100 0.1 10021374
15:00+12зюз7106231 0.3 10021667
18:00+10юз5107357 0.4 10031408
21:00+7юз411895 0.8 1004634